Volver al catálogo

STARLINK-5710

ActivoComunicacionesVLEO
NORAD 55616·PAYLOAD·🇺🇸 United States

Lanzado Feb 12, 2023 desde Cape Canaveral Space Force Station

Loading…

Próximos Pases (próximas 24 horas)

TLE

ActualizadoSource: CelesTrak SupGP

Época: Sep 15, 2026, 02:58 UTC

1 55616C 23020AZ  26258.12409722  .00012276  00000+0  44447-3 0  2581
2 55616  43.0024   4.2224 0001401 274.3032  62.2744 15.27585494    15

Sigue STARLINK-5710 en tiempo real con AllMySat

Download on the App Store